ZHONGXING-2D

Last updated on Mon Oct 14 2024 00:02:41 GMT+0000 (Coordinated Universal Time)

1 43920U 19001A 24287.53884837 -.00000338 00000+0 00000+0 0 9991 2 43920 0.0502 48.3053 0003271 206.2383 92.0572 1.00272644 47942
UTC large
Height (km)
Speed (km/s)
/
Latitude / Longitude
Inclination (degrees)
Orbital Period (minutes)
Azimuth
Elevation
Range (km)
Doppler Factor

Next 0 passes for location: London (51.5072 / 0.1276)

Sorry there are no passes over London.